Weather reports worldwide

Advertisment
Kleine Brogel, Belgium (6479): temperature & dewpoint: 16.01.2020 00:00:00 - 22.01.2020 00:00:00 (CET)Kleine Brogel, Belgium (6479): wind speed & gusts: 16.01.2020 00:00:00 - 22.01.2020 00:00:00 (CET)Kleine Brogel, Belgium (6479): wind direction: 16.01.2020 00:00:00 - 22.01.2020 00:00:00 (CET)Kleine Brogel, Belgium (6479): reduced air pressure: 16.01.2020 00:00:00 - 22.01.2020 00:00:00 (CET)Kleine Brogel, Belgium (6479): visibility: 16.01.2020 00:00:00 - 22.01.2020 00:00:00 (CET)
Date & Time tt [°C] td [°C] ff [km/h] ff [kn] fx [km/h] fx [kn] dd ppp [hPa] vv [km]
22.01.2020 00:00:00 -2,8 -2,8 4 2 11 6 N 1039,7 0,3
21.01.2020 23:00:00 -2,6 -2,6 4 2 7 4 N 1039,7 0,3
21.01.2020 22:00:00 -2,4 -2,4 4 2 - - N 1040,5 0,2
21.01.2020 21:00:00 -1,9 -1,9 4 2 7 4 N 1040,4 0,2
21.01.2020 20:00:00 -1,5 -1,5 4 2 7 4 N 1040,5 0,2
21.01.2020 19:00:00 -1,3 -1,2 4 2 - - N 1041,2 0,2
21.01.2020 18:00:00 -1,1 -1,1 4 2 7 4 N 1041,2 0,2
21.01.2020 17:00:00 -0,3 -0,3 4 2 4 2 N 1041,4 0,1
21.01.2020 16:00:00 0,4 0,3 4 2 - - N 1041,7 2,5
21.01.2020 15:00:00 0,9 0,9 4 2 7 4 N 1041,7 2,8
21.01.2020 14:00:00 0,0 0,0 4 2 7 4 N 1042,4 2,0
21.01.2020 13:00:00 -0,8 -0,8 4 2 - - N 1043,0 0,5
21.01.2020 12:00:00 -1,8 -1,8 4 2 7 4 N 1044,0 0,3
21.01.2020 11:00:00 -2,9 -2,9 4 2 4 2 N 1044,2 0,1
21.01.2020 10:00:00 -3,1 -3,1 4 2 - - N 1043,9 0,3
21.01.2020 09:00:00 -3,4 -3,4 4 2 4 2 N 1043,5 0,1
21.01.2020 08:00:00 -3,0 -3,0 4 2 4 2 N 1043,5 -
21.01.2020 07:00:00 -2,7 -2,7 4 2 - - N 1043,7 -
21.01.2020 06:00:00 -2,0 -2,0 4 2 7 4 N 1043,7 0,3
21.01.2020 05:00:00 -1,5 -1,5 4 2 4 2 N 1044,0 0,2
21.01.2020 04:00:00 -1,1 -1,1 4 2 - - N 1044,5 0,2
21.01.2020 03:00:00 -0,8 -0,8 4 2 4 2 N 1045,0 0,2
21.01.2020 02:00:00 -0,1 -0,1 4 2 7 4 N 1045,2 0,2
21.01.2020 01:00:00 0,6 0,6 4 2 - - N 1045,7 0,2
21.01.2020 00:00:00 1,2 1,2 4 2 7 4 N 1046,2 0,2
20.01.2020 23:00:00 1,6 1,6 4 2 7 4 N 1046,4 0,1
20.01.2020 22:00:00 2,5 2,5 4 2 - - N 1046,4 0,1
20.01.2020 21:00:00 3,2 3,2 4 2 7 4 - 1046,7 0,6
20.01.2020 20:00:00 3,5 3,2 2 1 4 2 - 1046,5 2,5
20.01.2020 19:00:00 3,7 3,3 4 2 - - N 1046,9 2,5
20.01.2020 18:00:00 4,0 3,6 4 2 7 4 N 1046,9 3,0
20.01.2020 17:00:00 4,5 3,8 4 2 7 4 N 1047,0 3,5
20.01.2020 16:00:00 5,0 4,0 4 2 - - N 1047,2 3,5
20.01.2020 15:00:00 4,9 4,3 4 2 7 4 N 1047,5 3,0
20.01.2020 14:00:00 4,4 4,0 2 1 4 2 - 1048,2 2,0
20.01.2020 13:00:00 4,2 4,2 4 2 - - N 1048,7 0,8
20.01.2020 12:00:00 3,0 3,0 4 2 11 6 N 1049,0 1,0
20.01.2020 11:00:00 1,5 1,5 4 2 7 4 N 1049,5 0,7
20.01.2020 10:00:00 0,2 0,2 4 2 - - N 1049,2 0,3
20.01.2020 09:00:00 -0,9 -1,1 4 2 4 2 N 1048,5 -
20.01.2020 08:00:00 -0,6 -0,6 4 2 4 2 N 1048,4 -
20.01.2020 07:00:00 -0,3 -0,3 2 1 - - - 1048,0 0,1
20.01.2020 06:00:00 -0,4 -0,4 4 2 4 2 N 1048,0 0,2
20.01.2020 05:00:00 -0,3 -0,3 4 2 4 2 N 1047,7 0,2
20.01.2020 04:00:00 -0,4 -0,4 4 2 - - N 1047,7 0,5
20.01.2020 03:00:00 0,0 0,0 0 0 4 2 N 1047,7 0,4
20.01.2020 02:00:00 1,7 1,5 4 2 11 6 N 1047,5 5
20.01.2020 01:00:00 1,3 1,1 4 2 - - N 1047,5 9
20.01.2020 00:00:00 0,6 0,3 4 2 7 4 N 1047,5 7
19.01.2020 23:00:00 1,0 0,3 4 2 7 4 N 1047,0 11
19.01.2020 22:00:00 1,3 0,4 4 2 - - N 1046,5 14
19.01.2020 21:00:00 1,5 0,5 4 2 7 4 N 1046,0 14
19.01.2020 20:00:00 2,0 0,7 4 2 7 4 N 1045,5 19
19.01.2020 19:00:00 3,2 1,2 4 2 - - N 1044,5 19
19.01.2020 18:00:00 4,3 1,7 4 2 11 6 N 1044,0 11
19.01.2020 17:00:00 5,6 3,0 4 2 22 12 N 1042,7 11
19.01.2020 16:00:00 6,5 2,5 7 4 - - N 1041,9 18
19.01.2020 15:00:00 7,0 2,4 11 6 25 14 N 1041,0 20
19.01.2020 14:00:00 6,6 2,5 14 8 25 14 N 1040,7 20
19.01.2020 13:00:00 5,8 2,4 7 4 - - NNE 1040,0 20
19.01.2020 12:00:00 5,0 2,7 7 4 18 10 N 1039,9 10
19.01.2020 11:00:00 2,7 1,4 7 4 14 8 N 1039,4 20
19.01.2020 10:00:00 1,7 0,8 7 4 - - N 1038,4 19
19.01.2020 09:00:00 0,4 -0,2 4 2 11 6 N 1037,0 19
19.01.2020 08:00:00 0,6 0,0 7 4 11 6 W 1036,0 19
19.01.2020 07:00:00 0,5 -0,1 7 4 - - N 1035,0 20
19.01.2020 06:00:00 0,4 -0,2 7 4 14 8 W 1034,7 20
19.01.2020 05:00:00 -0,3 -0,6 7 4 11 6 W 1034,4 13
19.01.2020 04:00:00 -0,1 -0,5 4 2 - - N 1033,7 14
19.01.2020 03:00:00 0,1 -0,2 4 2 11 6 N 1033,2 13
19.01.2020 02:00:00 0,1 -0,2 7 4 11 6 W 1032,5 14
19.01.2020 01:00:00 1,2 0,3 7 4 - - WSW 1032,0 16
19.01.2020 00:00:00 1,5 0,3 7 4 11 6 WSW 1031,5 18
18.01.2020 23:00:00 1,7 0,3 7 4 11 6 WSW 1031,0 19
18.01.2020 22:00:00 1,7 0,1 7 4 - - WSW 1030,5 20
18.01.2020 21:00:00 3,0 0,6 7 4 11 6 WSW 1030,0 20
18.01.2020 20:00:00 2,8 0,5 7 4 14 8 N 1029,7 20
18.01.2020 19:00:00 4,1 0,7 11 6 - - W 1029,0 20
18.01.2020 18:00:00 4,3 0,3 11 6 18 10 W 1028,0 20
18.01.2020 17:00:00 5,3 0,0 11 6 25 14 W 1027,0 20
18.01.2020 16:00:00 6,5 1,3 18 10 - - W 1026,5 20
18.01.2020 15:00:00 6,5 1,6 18 10 29 16 W 1026,0 18
18.01.2020 14:00:00 6,8 1,5 14 8 29 16 W 1025,9 20
18.01.2020 13:00:00 6,1 2,8 14 8 - - WSW 1025,9 20
18.01.2020 12:00:00 5,4 2,6 18 10 29 16 WSW 1025,9 20
18.01.2020 11:00:00 5,1 2,8 18 10 29 16 SW 1025,4 20
18.01.2020 10:00:00 4,5 2,2 14 8 - - SW 1024,9 20
18.01.2020 09:00:00 3,8 1,8 18 10 25 14 SW 1024,0 20
18.01.2020 08:00:00 3,9 1,9 14 8 25 14 SW 1023,3 20
18.01.2020 07:00:00 3,7 1,8 14 8 - - SW 1023,1 20
18.01.2020 06:00:00 3,4 1,4 14 8 25 14 SW 1022,7 20
18.01.2020 05:00:00 3,0 1,2 14 8 22 12 SSW 1022,7 20
18.01.2020 04:00:00 3,2 1,2 11 6 - - SSW 1022,2 20
18.01.2020 03:00:00 3,7 1,4 14 8 29 16 SW 1022,2 20
18.01.2020 02:00:00 3,9 1,9 18 10 29 16 SW 1021,7 20
18.01.2020 01:00:00 4,0 2,1 14 8 - - SSW 1021,2 20
18.01.2020 00:00:00 4,5 2,2 11 6 18 10 SSW 1020,7 20
17.01.2020 23:00:00 5,0 2,2 7 4 25 14 SW 1020,5 20
17.01.2020 22:00:00 6,0 2,2 18 10 - - WSW 1019,8 20
17.01.2020 21:00:00 6,6 2,2 18 10 36 19 WSW 1019,1 20
17.01.2020 20:00:00 7,1 2,3 22 12 36 19 WSW 1018,5 20
17.01.2020 19:00:00 8,2 3,3 22 12 - - WSW 1017,3 20
17.01.2020 18:00:00 8,4 4,1 25 14 36 19 WSW 1016,2 20
17.01.2020 17:00:00 9,0 6,3 15 8 25 14 SSW 1015,2 10
17.01.2020 16:00:00 9,5 7,2 14 8 - - SW 1014,8 15
17.01.2020 15:00:00 9,3 7,4 14 8 25 14 SW 1014,6 10
17.01.2020 14:00:00 8,8 7,6 14 8 25 14 SSW 1014,5 8
17.01.2020 13:00:00 8,6 7,3 14 8 - - SSW 1014,7 10
17.01.2020 12:00:00 9,3 6,3 18 10 40 21 SSW 1015,0 20
17.01.2020 11:00:00 9,8 5,3 18 10 29 16 SSW 1015,1 20
17.01.2020 10:00:00 9,9 4,8 14 8 - - SSW 1015,0 20
17.01.2020 09:00:00 9,6 4,7 11 6 22 12 SSW 1015,0 20
17.01.2020 08:00:00 9,1 4,6 11 6 22 12 S 1015,1 20
17.01.2020 07:00:00 8,4 4,1 9 5 - - S 1015,2 10
17.01.2020 06:00:00 9,1 4,2 7 4 18 10 S 1015,2 20
17.01.2020 05:00:00 9,5 4,2 7 4 25 14 S 1015,5 16
17.01.2020 04:00:00 9,3 4,3 11 6 - - S 1016,2 13
17.01.2020 03:00:00 9,1 3,9 11 6 25 14 S 1017,1 20
17.01.2020 02:00:00 9,6 3,8 11 6 22 12 S 1017,6 20
17.01.2020 01:00:00 7,7 3,6 7 4 - - SE 1018,3 20
17.01.2020 00:00:00 7,9 4,4 4 2 14 8 N 1018,7 16
16.01.2020 23:00:00 4,5 3,8 4 2 7 4 N 1019,2 17
16.01.2020 22:00:00 7,1 5,0 4 2 - - N 1019,7 20
16.01.2020 21:00:00 7,4 5,0 4 2 14 8 N 1020,1 20
16.01.2020 20:00:00 8,0 5,2 4 2 11 6 N 1020,7 20
16.01.2020 19:00:00 7,8 4,9 4 2 - - N 1021,7 20
16.01.2020 18:00:00 8,6 5,2 4 2 11 6 N 1021,7 20
16.01.2020 17:00:00 9,4 5,5 4 2 11 6 N 1022,0 20
16.01.2020 16:00:00 10,8 6,1 7 4 - - S 1022,5 20
16.01.2020 15:00:00 11,8 6,0 11 6 25 14 S 1022,7 20
16.01.2020 14:00:00 11,6 6,4 11 6 22 12 S 1023,5 20
16.01.2020 13:00:00 10,6 6,1 11 6 - - S 1024,2 15
16.01.2020 12:00:00 9,7 6,4 7 4 22 12 S 1025,2 15
16.01.2020 11:00:00 7,4 5,2 4 2 11 6 N 1025,5 15
16.01.2020 10:00:00 3,8 3,3 4 2 - - N 1025,9 15
16.01.2020 09:00:00 1,6 1,5 2 1 7 4 - 1026,4 2,0
16.01.2020 08:00:00 2,2 2,2 4 2 7 4 N 1026,2 10
16.01.2020 07:00:00 3,0 2,8 2 1 - - - 1026,0 10
16.01.2020 06:00:00 3,7 3,1 4 2 11 6 N 1025,7 16
16.01.2020 05:00:00 3,5 2,9 7 4 14 8 N 1025,5 19
16.01.2020 04:00:00 4,6 3,8 7 4 - - SSW 1025,4 20
16.01.2020 03:00:00 4,4 3,8 11 6 14 8 SSW 1024,9 17
16.01.2020 02:00:00 4,8 4,0 7 4 11 6 SSW 1024,2 19
16.01.2020 01:00:00 4,6 3,6 4 2 - - N 1023,7 20
16.01.2020 00:00:00 6,0 4,3 7 4 18 10 SW 1023,0 20

tt = temperature
td = dewpoint
ff = wind speed
fx = gusts
dd = wind direction
ppp = reduced air pressure
vv = visibility

Next stations